EW9034 Weather Reports


time (UTC)temp
F
wind
direction
speed
knots
gust
knots
rain 1hr
in
rain 24hr
in
rain mn
in
humidity
%
barometer
mb
20260507141602 53 219 5.2 8.7 0.00 0.00 0.00 58 1009.2
20260507140113 52 213 6.1 8.7 0.00 0.00 0.00 58 1009.2
20260507134553 50 217 6.1 7.8 0.00 0.00 0.00 65 1009.1
20260507133049 47 221 3.5 5.2 0.00 0.00 0.00 70 1009.2
20260507131600 48 221 3.5 7.0 0.00 0.00 0.00 67 1009.1
20260507130053 47 211 5.2 8.7 0.00 0.00 0.00 68 1009.2
20260507124552 46 206 4.3 5.2 0.00 0.00 0.00 69 1009.1
20260507123052 46 206 3.5 5.2 0.00 0.00 0.00 69 1009.1
20260507121542 47 205 3.5 5.2 0.00 0.00 0.00 70 1009.2
20260507120040 47 205 3.5 6.1 0.00 0.00 0.00 70 1009.2
20260507114543 46 205 4.3 5.2 0.00 0.00 0.00 71 1009.1
20260507113039 46 203 3.5 6.1 0.00 0.00 0.00 72 1009.2
20260507111535 46 202 2.6 3.5 0.00 0.00 0.00 71 1008.9
20260507110034 46 202 2.6 7.8 0.00 0.00 0.00 70 1008.8
20260507104532 47 263 5.2 7.8 0.00 0.00 0.00 69 1008.7
20260507103030 47 331 4.3 7.0 0.00 0.00 0.00 65 1009.1
20260507101534 46 345 4.3 7.8 0.00 0.00 0.00 59 1009.1
20260507100032 47 360 0.9 2.6 0.00 0.00 0.00 56 1009.2
20260507094526 47 9 1.7 3.5 0.00 0.00 0.00 58 1009.0
20260507093035 47 5 0.0 3.5 0.00 0.00 0.00 55 1009.0
20260507091522 47 5 0.9 3.5 0.00 0.00 0.00 57 1008.7
20260507090029 47 5 0.0 4.3 0.00 0.00 0.00 57 1008.9
20260507084517 48 11 2.6 3.5 0.00 0.00 0.00 57 1008.6
20260507083031 48 24 0.9 1.7 0.00 0.00 0.00 57 1008.7
20260507081512 48 30 2.6 4.3 0.00 0.00 0.00 54 1008.3
20260507080009 48 25 0.0 7.0 0.00 0.00 0.00 53 1008.3
20260507074518 49 23 1.7 3.5 0.00 0.00 0.00 50 1008.2
20260507073003 49 25 2.6 7.8 0.00 0.00 0.00 44 1008.1
20260507071500 50 58 1.7 3.5 0.00 0.00 0.00 48 1007.9
20260507070058 50 71 0.0 0.9 0.00 0.00 0.00 45 1007.7
20260507064559 51 69 0.9 4.3 0.00 0.00 0.00 38 1007.4
20260507063058 51 69 4.3 7.8 0.00 0.00 0.00 36 1008.1
20260507061551 52 95 2.6 6.1 0.00 0.00 0.00 35 1007.8
20260507060048 52 94 7.0 10.4 0.00 0.00 0.00 33 1007.6
20260507054552 52 80 6.1 9.6 0.00 0.00 0.00 33 1007.7
20260507053048 51 63 6.1 10.4 0.00 0.00 0.00 36 1008.0
20260507051546 52 40 7.8 11.3 0.00 0.00 0.00 34 1008.4
20260507050045 53 51 6.1 8.7 0.00 0.00 0.00 34 1008.2
20260507044545 53 61 4.3 9.6 0.00 0.00 0.00 34 1008.3
20260507043044 53 53 5.2 7.8 0.00 0.00 0.00 34 1008.4
20260507041543 54 47 5.2 9.6 0.00 0.00 0.00 32 1008.5
20260507040056 54 76 6.1 8.7 0.00 0.00 0.00 32 1008.6
20260507034553 55 116 4.3 7.8 0.00 0.00 0.00 30 1008.4
20260507033043 55 118 4.3 13.0 0.00 0.00 0.00 29 1008.3
20260507031541 55 93 8.7 13.0 0.00 0.00 0.00 30 1007.2
20260507030041 56 64 9.6 15.6 0.00 0.00 0.00 28 1007.2
20260507024540 57 90 12.2 17.4 0.00 0.00 0.00 28 1006.6
20260507023038 58 75 7.0 14.8 0.00 0.00 0.00 26 1007.0
20260507021538 59 77 7.8 13.0 0.00 0.00 0.00 26 1007.2
20260507020037 60 71 7.0 13.0 0.00 0.00 0.00 25 1007.4
20260507014537 61 80 8.7 12.2 0.00 0.00 0.00 25 1007.0
20260507013038 62 74 7.8 13.9 0.00 0.00 0.00 25 1006.8
20260507011539 63 86 10.4 14.8 0.00 0.00 0.00 25 1006.8
20260507010034 65 67 8.7 14.8 0.00 0.00 0.00 24 1007.0
20260507004533 65 62 8.7 13.0 0.00 0.00 0.00 24 1007.1
20260507003031 65 63 8.7 13.0 0.00 0.00 0.00 24 1007.2
20260507001541 65 78 7.0 12.2 0.00 0.00 0.00 26 1007.2
20260507000031 66 44 7.0 11.3 0.00 0.00 0.00 24 1007.2
20260506234541 67 65 7.0 12.2 0.00 0.00 0.00 24 1007.3
20260506233029 67 55 4.3 11.3 0.00 0.00 0.00 23 1007.3
20260506231531 68 71 7.8 10.4 0.00 0.00 0.00 24 1007.6
20260506230025 69 40 4.3 8.7 0.00 0.00 0.00 23 1007.7
20260506224527 68 76 1.7 8.7 0.00 0.00 0.00 24 1008.0
20260506223018 68 167 1.7 4.3 0.00 0.00 0.00 23 1008.3
20260506221516 67 169 5.2 7.8 0.00 0.00 0.00 23 1008.6
20260506220014 68 186 4.3 8.7 0.00 0.00 0.00 22 1008.8
20260506214512 67 298 3.5 11.3 0.00 0.00 0.00 25 1009.1
20260506213018 65 165 2.6 12.2 0.00 0.00 0.00 25 1009.3
20260506211509 65 246 6.1 9.6 0.00 0.00 0.00 23 1009.7
20260506210005 65 166 3.5 7.8 0.00 0.00 0.00 25 1010.0
20260506204504 65 237 5.2 10.4 0.00 0.00 0.00 25 1010.2
20260506203001 64 244 3.5 9.6 0.00 0.00 0.00 25 1010.5
20260506201558 62 260 1.7 8.7 0.00 0.00 0.00 26 1010.8
20260506200056 62 207 3.5 12.2 0.00 0.00 0.00 26 1011.0
20260506194553 61 227 2.6 10.4 0.00 0.00 0.00 25 1011.3
20260506193050 60 247 1.7 10.4 0.00 0.00 0.00 27 1011.7
20260506191551 62 202 5.2 13.9 0.00 0.00 0.00 30 1011.9
20260506190049 59 220 0.9 7.8 0.00 0.00 0.00 26 1012.4
20260506184553 60 167 1.7 10.4 0.00 0.00 0.00 26 1012.6
20260506183041 60 175 5.2 9.6 0.00 0.00 0.00 29 1012.8
20260506181538 58 215 4.3 12.2 0.00 0.00 0.00 27 1013.1
20260506180037 58 206 2.6 9.6 0.00 0.00 0.00 27 1013.3
20260506174532 57 144 5.2 7.8 0.00 0.00 0.00 28 1013.6
20260506173036 57 159 4.3 9.6 0.00 0.00 0.00 29 1013.9
20260506171524 55 243 6.1 11.3 0.00 0.00 0.00 29 1014.3
20260506170121 55 228 4.3 9.6 0.00 0.00 0.00 30 1014.5
20260506164518 55 210 6.1 9.6 0.00 0.00 0.00 31 1014.6
20260506163036 55 192 7.0 10.4 0.00 0.00 0.00 32 1014.9
20260506161515 54 191 7.0 13.0 0.00 0.00 0.00 34 1015.3
20260506160010 53 197 7.0 13.0 0.00 0.00 0.00 34 1015.5
20260506154524 52 233 7.0 13.9 0.00 0.00 0.00 35 1015.7
20260506153002 52 185 7.0 11.3 0.00 0.00 0.00 35 1016.0
20260506151558 50 184 7.0 12.2 0.00 0.00 0.00 36 1016.2
20260506150055 49 188 7.0 11.3 0.00 0.00 0.00 38 1016.4
20260506144550 45 294 1.7 4.3 0.00 0.00 0.00 50 1016.7
20260506143046 43 296 3.5 6.1 0.00 0.00 0.00 52 1016.9